Ithaca, NY

10:00 PM EDT on August 23, 2017 (GMT -0400)
Tompkins County

Weather History for KITH - March, 2014

Change the Weather History Date:

Sunday, March 23, 2014

  Actual Average Record
Temperature  
Mean Temperature 24 °F -  
Max Temperature 32 °F 42 °F 77 °F (1938)
Min Temperature 15 °F 25 °F 3 °F (2017)
Degree Days  
Heating Degree Days 42    
Moisture  
Dew Point 15 °F    
Average Humidity 72    
Maximum Humidity 86    
Minimum Humidity 58    
Precipitation  
Precipitation 0.00 in - - ()
Sea Level Pressure  
Sea Level Pressure 30.14 in    
Wind  
Wind Speed 12 mph (NW)    
Max Wind Speed 18 mph    
Max Gust Speed 25 mph    
Visibility 8 miles    
Events Snow    
Averages and records for this station are not official NWS values.
T = Trace of Precipitation, MM = Missing Value Source: NWS Daily Summary

Daily Weather History Graph

Daily Weather History Graph

Search for Another Location

Airport or City:

Trip Planner

Search our weather history database for the weather conditions in past years. The results will help you decide how hot, cold, wet, or windy it might be!

Date:

Astronomy

Mar. 23, 2014 Rise Set
Actual Time 7:03 AM EDT 7:21 PM EDT
Civil Twilight 6:35 AM EDT 7:49 PM EDT
Nautical Twilight 6:02 AM EDT 8:22 PM EDT
Astronomical Twilight 5:29 AM EDT 8:56 PM EDT
Moon 1:42 AM EDT (3/23) 11:36 AM EDT (3/23)
Length of Visible Light 13h 13m
Length of Day
12h 17m
Waning Gibbous, 55% of the Moon is Illuminated
Mar 23
Waning Gibbous
Mar 23
Last Quarter
Mar 30
New
Apr 7
First Quarter
Apr 15
Full

Hourly Weather History & Observations

Time (EDT) Temp. Windchill Dew Point Humidity Pressure Visibility Wind Dir Wind Speed Gust Speed Precip Events Conditions
12:56 AM 31.1 °F 24.5 °F 22.1 °F 69% 30.06 in 10.0 mi WNW 6.9 mph - N/A   Overcast
1:56 AM 31.1 °F 23.1 °F 23.0 °F 72% 30.05 in 10.0 mi West 9.2 mph - 0.00 in   Mostly Cloudy
2:30 AM 30.2 °F 22.6 °F 21.2 °F 69% 30.02 in 10.0 mi West 8.1 mph - N/A   Overcast
2:56 AM 31.1 °F 21.4 °F 23.0 °F 72% 30.06 in 10.0 mi NW 12.7 mph 18.4 mph 0.00 in Snow Light Snow
3:17 AM 28.4 °F 18.0 °F 24.8 °F 86% 30.03 in 10.0 mi NNW 12.7 mph - 0.00 in Snow Light Snow
3:41 AM 28.4 °F 19.1 °F 24.8 °F 86% 30.04 in 10.0 mi NNW 10.4 mph - 0.00 in Snow Light Snow
3:56 AM 28.0 °F 17.0 °F 22.1 °F 78% 30.08 in 10.0 mi NW 13.8 mph 23.0 mph 0.00 in Snow Light Snow
4:15 AM 28.4 °F 18.0 °F 19.4 °F 69% 30.05 in 10.0 mi NW 12.7 mph - 0.00 in   Overcast
4:56 AM 27.1 °F 14.9 °F 17.1 °F 66% 30.10 in 10.0 mi NNW 16.1 mph - 0.00 in   Overcast
5:11 AM 26.6 °F 14.7 °F 14.0 °F 59% 30.06 in 10.0 mi NNW 15.0 mph 19.6 mph N/A   Overcast
5:56 AM 24.1 °F 11.5 °F 16.2 °F 72% 30.12 in 10.0 mi NNW 15.0 mph - N/A   Overcast
6:23 AM 21.2 °F 7.8 °F 15.8 °F 80% 30.10 in 10.0 mi NNW 15.0 mph - N/A   Mostly Cloudy
6:56 AM 21.0 °F 8.1 °F 12.0 °F 68% 30.14 in 10.0 mi NW 13.8 mph 20.7 mph N/A   Mostly Cloudy
7:33 AM 21.2 °F 7.8 °F 15.8 °F 80% 30.11 in 10.0 mi WNW 15.0 mph - 0.00 in Snow Light Snow
7:56 AM 22.1 °F 8.5 °F 16.2 °F 78% 30.17 in 6.0 mi NW 16.1 mph - 0.00 in Snow Light Snow
8:56 AM 22.1 °F 7.6 °F 16.2 °F 78% 30.17 in 1.0 mi NW 18.4 mph 25.3 mph 0.00 in Snow Light Snow
9:41 AM 21.2 °F 6.8 °F 14.0 °F 74% 30.13 in 7.0 mi NW 17.3 mph 21.9 mph 0.00 in Snow Light Snow
9:56 AM 23.0 °F 9.6 °F 14.0 °F 68% 30.18 in 10.0 mi NNW 16.1 mph - 0.00 in Snow Light Snow
10:56 AM 24.1 °F 11.0 °F 11.1 °F 58% 30.18 in 10.0 mi NNW 16.1 mph 21.9 mph 0.00 in Snow Light Snow
11:56 AM 24.1 °F 12.5 °F 11.1 °F 58% 30.19 in 10.0 mi NW 12.7 mph - 0.00 in   Mostly Cloudy
12:56 PM 24.1 °F 13.1 °F 13.1 °F 63% 30.19 in 7.0 mi NNW 11.5 mph - 0.00 in   Mostly Cloudy
1:56 PM 24.1 °F 12.0 °F 11.1 °F 58% 30.18 in 7.0 mi WNW 13.8 mph 21.9 mph 0.00 in   Mostly Cloudy
2:56 PM 23.0 °F 11.7 °F 15.1 °F 72% 30.17 in 4.0 mi NNW 11.5 mph 19.6 mph 0.00 in Snow Light Snow Showers
3:56 PM 22.1 °F 10.0 °F 12.0 °F 65% 30.17 in 4.0 mi North 12.7 mph - 0.00 in Snow Light Snow Showers
4:56 PM 20.1 °F 6.9 °F 16.2 °F 85% 30.17 in 3.0 mi NNW 13.8 mph - 0.00 in Snow Light Snow Showers
5:56 PM 19.0 °F 7.5 °F 14.0 °F 81% 30.19 in 4.0 mi North 10.4 mph - 0.00 in Snow Light Snow Showers
6:56 PM 18.1 °F 6.3 °F 12.0 °F 77% 30.20 in 6.0 mi NNW 10.4 mph - 0.00 in Snow Light Snow Showers
7:32 PM 17.6 °F 5.0 °F 12.2 °F 79% 30.15 in 2.0 mi North 11.5 mph - 0.00 in Snow Light Snow Showers
7:42 PM 17.6 °F 5.7 °F 12.2 °F 79% 30.15 in 4.0 mi NNW 10.4 mph - 0.00 in Snow Light Snow Showers
7:56 PM 17.1 °F 5.8 °F 12.0 °F 81% 30.21 in 5.0 mi NNW 9.2 mph - 0.00 in Snow Light Snow Showers
8:56 PM 17.1 °F 5.8 °F 10.0 °F 74% 30.23 in 7.0 mi North 9.2 mph - 0.00 in Snow Light Snow Showers
9:29 PM 17.6 °F 3.2 °F 8.6 °F 68% 30.18 in 10.0 mi NW 15.0 mph 20.7 mph 0.00 in Snow Light Snow
9:56 PM 17.1 °F 5.8 °F 7.2 °F 65% 30.24 in 10.0 mi North 9.2 mph - 0.00 in Snow Light Snow Showers
10:56 PM 16.2 °F 1.9 °F 5.0 °F 62% 30.25 in 10.0 mi NW 13.8 mph 19.6 mph 0.00 in   Overcast
11:56 PM 15.1 °F 1.8 °F 4.1 °F 62% 30.26 in 10.0 mi NW 11.5 mph 20.7 mph N/A   Mostly Cloudy